Regional Weather Roundup
Issued by NWS

Home | Current Version | Previous Version | Text Only | Print | Product List | Glossary Off
Versions: 1 2 3 4 5 6 7 8 9 10 11 12 13 14 15 16 17 18 19 20 21 22 23 24 25 26 27 28 29 30 31 32 33 34 35 36 37 38 39 40 41 42 43 44 45 46 47 48 49 50

000
ASUS43 KBIS 291510
RWRND

NORTH DAKOTA REGIONAL WEATHER ROUNDUP
NATIONAL WEATHER SERVICE BISMARCK ND
1000 AM CDT THU SEP 29 2016

NOTE: "FAIR" INDICATES FEW OR NO CLOUDS BELOW 12,000 FEET WITH NO
SIGNIFICANT WEATHER AND/OR OBSTRUCTIONS TO VISIBILITY.


NDZ001>003-009>011-017-291600-
NORTHWEST NORTH DAKOTA

CITY           SKY/WX    TMP DP  RH WIND       PRES   REMARKS
WILLISTON      SUNNY     57  44  62 SE9       30.26S
MINOT          SUNNY     54  47  77 SE10      30.34S
MINOT AFB      SUNNY     52  47  83 S14       30.33S
$$

NDZ018>021-031>035-040>046-291600-
SOUTHWEST NORTH DAKOTA

CITY           SKY/WX    TMP DP  RH WIND       PRES   REMARKS
BISMARCK       SUNNY     51  47  86 SE9       30.40S
DICKINSON      SUNNY     53  44  71 SE13      30.28F
GARRISON         N/A     53  48  83 S9        30.35S
HETTINGER ARPT SUNNY     53  44  71 SE13      30.32F
$$

NDZ004>008-012>016-024-026-027-054-291600-
NORTHEAST NORTH DAKOTA

CITY           SKY/WX    TMP DP  RH WIND       PRES   REMARKS
GRAND FORKS    CLOUDY    54  47  77 S9        30.48R
GRND FRKS AFB  MOSUNNY   54  48  82 S6        30.48R
DEVILS LAKE    SUNNY     53  48  83 SE10      30.45R
$$

NDZ022-023-025-028>030-036>039-047>053-291600-
SOUTHEAST NORTH DAKOTA

CITY           SKY/WX    TMP DP  RH WIND       PRES   REMARKS
FARGO          CLOUDY    57  47  69 SE3       30.49S
JAMESTOWN      SUNNY     50  47  89 S8        30.45R
$$




USA.gov is the U.S. government's official web portal to all federal, state and local government web resources and services.